TimeCST,TemperatureF,Dew PointF,Humidity,Sea Level PressureIn,VisibilityMPH,Wind Direction,Wind SpeedMPH,Gust SpeedMPH,PrecipitationIn,Events,Conditions,WindDirDegrees,DateUTC
12:52 AM,-7.1,-11.0,83,30.34,10.0,WNW,4.6,-,N/A,,Clear,300,2013-01-01 06:52:00
1:52 AM,-6.0,-11.0,79,30.33,10.0,NW,8.1,-,N/A,,Clear,320,2013-01-01 07:52:00
2:52 AM,-7.1,-11.9,79,30.35,10.0,NW,6.9,-,N/A,,Clear,310,2013-01-01 08:52:00
3:52 AM,-7.1,-11.9,79,30.35,10.0,WNW,6.9,-,N/A,,Clear,290,2013-01-01 09:52:00
4:52 AM,-2.0,-7.1,79,30.33,10.0,NW,3.5,-,N/A,,Overcast,320,2013-01-01 10:52:00
5:04 AM,-0.4,-5.8,78,30.23,10.0,NW,3.5,-,N/A,,Overcast,310,2013-01-01 11:04:00
5:52 AM,1.0,-4.0,79,30.32,10.0,West,3.5,-,N/A,,Overcast,280,2013-01-01 11:52:00
6:52 AM,3.0,-2.0,80,30.32,10.0,SSW,3.5,-,N/A,,Overcast,200,2013-01-01 12:52:00
7:52 AM,5.0,-0.9,76,30.31,10.0,SW,4.6,-,N/A,,Overcast,220,2013-01-01 13:52:00
9:52 AM,8.1,1.0,73,30.32,10.0,SW,6.9,-,N/A,,Overcast,220,2013-01-01 15:52:00
10:52 AM,10.0,3.0,73,30.31,10.0,SW,9.2,-,N/A,,Overcast,220,2013-01-01 16:52:00
11:52 AM,10.9,5.0,77,30.30,10.0,SW,9.2,-,N/A,,Overcast,220,2013-01-01 17:52:00
12:31 PM,12.2,6.8,79,30.18,10.0,SW,9.2,-,N/A,,Overcast,220,2013-01-01 18:31:00
12:52 PM,14.0,9.0,80,30.27,10.0,SW,9.2,-,N/A,,Overcast,220,2013-01-01 18:52:00
1:52 PM,16.0,10.9,81,30.26,10.0,West,11.5,-,N/A,,Overcast,260,2013-01-01 19:52:00
2:52 PM,17.1,12.0,81,30.25,10.0,SW,8.1,-,N/A,,Overcast,220,2013-01-01 20:52:00
3:05 PM,17.6,12.2,79,30.14,10.0,SW,11.5,-,N/A,,Overcast,230,2013-01-01 21:05:00
3:52 PM,17.1,12.0,81,30.23,10.0,SW,9.2,-,N/A,,Overcast,220,2013-01-01 21:52:00
4:17 PM,17.6,12.2,79,30.13,10.0,SW,9.2,-,N/A,,Overcast,220,2013-01-01 22:17:00
4:52 PM,17.1,12.0,81,30.21,10.0,SW,9.2,-,N/A,,Overcast,220,2013-01-01 22:52:00
5:05 PM,17.6,12.2,79,30.12,10.0,SW,11.5,-,N/A,,Overcast,220,2013-01-01 23:05:00
5:52 PM,17.1,12.0,81,30.20,10.0,SW,12.7,-,N/A,,Overcast,220,2013-01-01 23:52:00
6:18 PM,15.8,10.4,79,30.10,10.0,SSW,10.4,-,N/A,,Scattered Clouds,210,2013-01-02 00:18:00
6:52 PM,12.9,8.1,81,30.18,10.0,SSW,9.2,-,N/A,,Clear,210,2013-01-02 00:52:00
7:52 PM,10.9,7.0,84,30.17,10.0,SSW,11.5,-,N/A,,Clear,200,2013-01-02 01:52:00
8:52 PM,10.0,5.0,80,30.15,10.0,SW,12.7,-,N/A,,Clear,220,2013-01-02 02:52:00
9:05 PM,10.4,6.8,85,30.06,10.0,SW,15.0,-,N/A,,Scattered Clouds,220,2013-01-02 03:05:00
9:13 PM,10.4,6.8,85,30.06,10.0,SW,15.0,-,N/A,,Mostly Cloudy,220,2013-01-02 03:13:00
9:52 PM,12.9,10.0,88,30.13,7.0,SW,13.8,-,N/A,,Overcast,230,2013-01-02 03:52:00
10:09 PM,12.2,10.4,92,30.04,5.0,SW,13.8,-,N/A,,Overcast,230,2013-01-02 04:09:00
10:23 PM,14.0,12.2,93,30.04,2.5,SW,16.1,-,N/A,,Overcast,230,2013-01-02 04:23:00
10:37 PM,14.0,12.2,93,30.03,1.5,WSW,16.1,-,N/A,,Overcast,240,2013-01-02 04:37:00
10:52 PM,15.1,12.9,91,30.11,1.0,SW,16.1,-,N/A,,Overcast,230,2013-01-02 04:52:00
11:52 PM,16.0,14.0,92,30.09,1.2,WSW,15.0,-,N/A,,Overcast,240,2013-01-02 05:52:00